Regional Weather Roundup
Issued by NWS

Home | Current Version | Previous Version | Graphics & Text | Print | Product List | Glossary On
Versions: 1 2 3 4 5 6 7 8 9 10 11 12 13 14 15 16 17 18 19 20 21 22 23 24 25 26 27 28 29 30 31 32 33 34 35 36 37 38 39 40 41 42 43 44 45 46 47 48 49 50
246
ASUS45 KCYS 271710
RWRWY

WYOMING REGIONAL WEATHER ROUNDUP
NATIONAL WEATHER SERVICE CHEYENNE WY
1100 AM MDT WED JUL 27 2016

NOTE:  "FAIR" INDICATES FEW OR NO CLOUDS BELOW 12,000 FEET
WITH NO SIGNIFICANT WEATHER AND/OR OBSTRUCTIONS TO VISIBILITY.

WYZ001-271800-
YELLOWSTONE NATIONAL PARK

CITY           SKY/WX    TMP DP  RH WIND       PRES   REMARKS
LK YELLOWSTONE   N/A     61  46  57 VRB5      30.42S
W YELLOWSTONE  NOT AVBL

$$
WYZ002>013-054>058-071-098>099-271800-
NORTHERN WYOMING

CITY           SKY/WX    TMP DP  RH WIND       PRES   REMARKS
JACKSON        SUNNY     72  37  28 CALM      30.31F
CODY           FAIR      75  46  35 N7        30.21S
GREYBULL       FAIR      79  47  32 VRB3      30.13F
WORLAND        FAIR      78  47  33 VRB5      30.15F
SHERIDAN       FAIR      82  51  34 VRB3      30.15S
BUFFALO        FAIR      79  52  38 CALM      30.20R
GILLETTE       FAIR      80  53  39 VRB3      30.16S
HULETT         LGT RAIN  72  55  56 NW5       30.21R
NEWCASTLE      FAIR      72  55  56 SE5       30.18S

$$
WYZ014>020-022>026-101>103-271800-
CENTRAL WYOMING

CITY           SKY/WX    TMP DP  RH WIND       PRES   REMARKS
BIG PINEY      CLOUDY    73  35  25 SW6       30.34S HAZE
PINEDALE       FAIR      72  32  23 CALM      30.35S
DUBOIS         FAIR      73  36  25 CALM      30.33F
LANDER         FAIR      77  46  33 N6        30.24R
RIVERTON       FAIR      78  47  33 E6        30.23F
CASPER         FAIR      78  49  35 SW9       30.20S
DOUGLAS          N/A    N/A N/A N/A MISG      30.19F

$$
WYZ021-027>030-104>119-271800-
SOUTHERN WYOMING

CITY           SKY/WX    TMP DP  RH WIND       PRES   REMARKS
EVANSTON       FAIR      82  23  11 W16G28    30.35S
KEMMERER         N/A     81  21  11 W8        30.36S
FORT BRIDGER   FAIR      84  21  10 W9G18     30.36S
ROCK SPRINGS   FAIR      77  27  15 SW7       30.32S
DIXON          FAIR      82  35  18 W5        30.32S
RAWLINS        FAIR      78  35  21 VRB6G18   30.31S
SARATOGA       FAIR      79  39  24 N9G17     30.32R
LARAMIE        FAIR      76  36  23 VRB6      30.32S
CHEYENNE       FAIR      74  53  48 NE8       30.27S
TORRINGTON     FAIR      77  58  51 S12       30.16F
PINE BLUFFS    FAIR      72  55  56 NE3       30.22F

$$




USA.gov is the U.S. government's official web portal to all federal, state and local government web resources and services.